New Haven, CT

5:55 PM EST on February 13, 2016 (GMT -0500)
Tweed-New Haven

Weather History for KHVN - May, 2014

Change the Weather History Date:

Friday, May 2, 2014

  Actual Average Record
Temperature  
Mean Temperature 58 °F -  
Max Temperature 64 °F 62 °F 82 °F (2001)
Min Temperature 53 °F 45 °F 35 °F (2005)
Degree Days  
Heating Degree Days 7    
Growing Degree Days 8 (Base 50)    
Moisture  
Dew Point 42 °F    
Average Humidity 56    
Maximum Humidity 83    
Minimum Humidity 42    
Precipitation  
Precipitation 0.00 in - - ()
Sea Level Pressure  
Sea Level Pressure 29.75 in    
Wind  
Wind Speed 6 mph (WSW)    
Max Wind Speed 13 mph    
Max Gust Speed 20 mph    
Visibility 10 miles    
Events Rain    
Averages and records for this station are not official NWS values.
T = Trace of Precipitation, MM = Missing Value Source: NWS Daily Summary

Daily Weather History Graph

Daily Weather History Graph

Search for Another Location

Airport or City:

Trip Planner

Search our weather history database for the weather conditions in past years. The results will help you decide how hot, cold, wet, or windy it might be!

Date:

Astronomy

May. 02, 2014 Rise Set
Actual Time 5:47 AM EDT 7:49 PM EDT
Civil Twilight 5:17 AM EDT 8:20 PM EDT
Nautical Twilight 4:40 AM EDT 8:57 PM EDT
Astronomical Twilight 4:00 AM EDT 9:37 PM EDT
Moon 8:22 AM EDT (5/2) 11:10 PM EDT (5/2)
Length of Visible Light 15h 02m
Length of Day
14h 02m
Waxing Crescent, 12% of the Moon is Illuminated
May 2
Waxing Crescent
May 6
First Quarter
May 14
Full
May 21
Last Quarter
May 28
New

Hourly Weather History & Observations

Time (EDT) Temp. Dew Point Humidity Pressure Visibility Wind Dir Wind Speed Gust Speed Precip Events Conditions
12:53 AM 60.1 °F 55.0 °F 83% 29.72 in 8.0 mi NNW 9.2 mph - 0.00 in Rain Light Rain
1:53 AM 57.0 °F 48.9 °F 74% 29.71 in 10.0 mi North 8.1 mph 17.3 mph 0.00 in   Mostly Cloudy
2:53 AM 55.9 °F 41.0 °F 57% 29.74 in 10.0 mi North 8.1 mph - N/A   Mostly Cloudy
3:53 AM 54.0 °F 41.0 °F 62% 29.73 in 10.0 mi NNW 6.9 mph - N/A   Overcast
4:53 AM 53.1 °F 41.0 °F 64% 29.71 in 10.0 mi North 4.6 mph - N/A   Overcast
5:53 AM 53.1 °F 41.0 °F 64% 29.75 in 10.0 mi Calm Calm - N/A   Overcast
6:53 AM 54.0 °F 41.0 °F 62% 29.74 in 10.0 mi Calm Calm - 0.00 in   Mostly Cloudy
7:53 AM 54.0 °F 41.0 °F 62% 29.76 in 10.0 mi WSW 4.6 mph - N/A   Mostly Cloudy
8:53 AM 55.9 °F 41.0 °F 57% 29.77 in 10.0 mi Calm Calm - N/A   Overcast
9:53 AM 59.0 °F 42.1 °F 53% 29.77 in 10.0 mi Variable 4.6 mph - N/A   Scattered Clouds
10:53 AM 59.0 °F 41.0 °F 51% 29.77 in 10.0 mi SSW 8.1 mph - N/A   Scattered Clouds
11:53 AM 59.0 °F 39.9 °F 49% 29.76 in 10.0 mi SSW 9.2 mph - N/A   Mostly Cloudy
12:53 PM 61.0 °F 39.9 °F 46% 29.74 in 10.0 mi South 6.9 mph - N/A   Mostly Cloudy
1:53 PM 61.0 °F 42.1 °F 50% 29.73 in 10.0 mi Variable 6.9 mph - N/A   Overcast
2:53 PM 61.0 °F 46.0 °F 58% 29.72 in 10.0 mi South 9.2 mph - N/A   Mostly Cloudy
3:53 PM 62.1 °F 42.1 °F 48% 29.71 in 10.0 mi SSW 11.5 mph 19.6 mph N/A   Mostly Cloudy
4:53 PM 62.1 °F 42.1 °F 48% 29.71 in 10.0 mi SW 12.7 mph 19.6 mph N/A   Overcast
5:53 PM 63.0 °F 39.9 °F 43% 29.73 in 10.0 mi SW 6.9 mph 17.3 mph N/A   Mostly Cloudy
6:53 PM 63.0 °F 39.9 °F 43% 29.75 in 10.0 mi SW 5.8 mph - N/A   Partly Cloudy
7:53 PM 62.6 °F 39.2 °F 42% 29.77 in 10.0 mi SW 5.8 mph - N/A   Scattered Clouds
8:53 PM 57.9 °F 41.0 °F 53% 29.79 in 10.0 mi Calm Calm - N/A   Clear
9:53 PM 57.9 °F 43.0 °F 58% 29.82 in 10.0 mi Calm Calm - N/A   Clear
10:53 PM 57.9 °F 39.0 °F 49% 29.82 in 10.0 mi Calm Calm - N/A   Clear
11:53 PM 55.0 °F 39.9 °F 57% 29.83 in 10.0 mi Calm Calm - N/A   Clear